This is the latest recevied weather packets stored in our database for station/object DL5TW-13. If no packets are shown the sender has not sent any weather packets the latest 1 day(s).
| Time | Temp. | Humidity | Pressure | Rain* | Wind** | Luminosity | Snow |
|---|---|---|---|---|---|---|---|
| 1778002215 | 15° C | 79% | 1001.7 hPa | 0 mm | 0 m/s | - | - |
| 1778001915 | 15.56° C | 78% | 1001.6 hPa | 0 mm | 0 m/s | - | - |
| 1778001615 | 15.56° C | 77% | 1001.7 hPa | 0 mm | 0 m/s | - | - |
| 1778001314 | 15.56° C | 77% | 1001.6 hPa | 0 mm | 2.24 m/s, 67° | - | - |
| 1778001014 | 15.56° C | 75% | 1001.6 hPa | 0 mm | 0 m/s | - | - |
| 1778000714 | 16.11° C | 74% | 1001.5 hPa | 0 mm | 1.79 m/s, 45° | - | - |
| 1778000414 | 16.11° C | 74% | 1001.4 hPa | 0 mm | 0 m/s | - | - |
| 1778000113 | 16.11° C | 73% | 1001.6 hPa | 0 mm | 0.45 m/s, 90° | - | - |
| 1777999813 | 16.67° C | 73% | 1001.6 hPa | 0 mm | 2.68 m/s, 45° | - | - |
| 1777999513 | 16.67° C | 71% | 1001.8 hPa | 0 mm | 2.68 m/s, 45° | - | - |
| 1777999212 | 16.67° C | 71% | 1001.7 hPa | 0 mm | 0 m/s | - | - |
| 1777998912 | 17.22° C | 70% | 1001.6 hPa | 0 mm | 1.34 m/s, 67° | - | - |
| 1777998612 | 17.22° C | 69% | 1001.7 hPa | 0 mm | 3.13 m/s, 45° | - | - |
| 1777998312 | 17.22° C | 69% | 1001.7 hPa | 0 mm | 0 m/s | - | - |
| 1777998011 | 17.78° C | 68% | 1001.8 hPa | 0 mm | 0.45 m/s, 67° | - | - |
| 1777997711 | 17.78° C | 67% | 1001.8 hPa | 0 mm | 1.79 m/s, 67° | - | - |
| 1777997411 | 17.78° C | 67% | 1001.8 hPa | 0 mm | 1.79 m/s, 67° | - | - |
| 1777997110 | 17.78° C | 67% | 1002 hPa | 0 mm | 0 m/s | - | - |
| 1777996810 | 18.33° C | 66% | 1001.8 hPa | 0 mm | 0.89 m/s, 67° | - | - |
| 1777996510 | 18.33° C | 66% | 1001.8 hPa | 0 mm | 0 m/s | - | - |
| 1777996210 | 18.33° C | 66% | 1001.8 hPa | 0 mm | 1.34 m/s, 67° | - | - |
| 1777995909 | 18.89° C | 66% | 1001.8 hPa | 0 mm | 2.68 m/s, 67° | - | - |
| 1777995609 | 18.89° C | 67% | 1001.7 hPa | 0 mm | 0 m/s | - | - |
| 1777995309 | 18.33° C | 67% | 1001.7 hPa | 0 mm | 0 m/s | - | - |
| 1777995008 | 18.33° C | 67% | 1001.8 hPa | 0 mm | 0 m/s | - | - |
* Rain latest hour (hover to see other rain measurements)
** Current wind speed in m/s (hover to see current wind gust speed)